When you browse on this site, cookies collect data to enhance your experience and personalize the content and advertising you see.
Visit our Privacy Policy to learn more. By continuing to use the site, you agree to this use of cookies and data.
  • In Lithuania
  • List of Countries
  • For 7 days
  • Water Temperature
  • Satellite Maps
  • Weather Map
  • Weather Widgets
  • user-avatar
    Login

    Hourly Weather Kazimierzow

    Today, 19 November, Monday

    Time Temperature Precipitation Wind Pressure Humidity
    00:00 +1°C° 0.1 mm 1 mps 752 mmHg 75%
    01:00 +1°C° 0 mm 1 mps 752 mmHg 85%
    02:00 -1°C° 0.1 mm 2 mps 752 mmHg 87%
    03:00 +1°C° 0.1 mm 2 mps 751 mmHg 88%
    04:00 +1°C° 0.1 mm 2 mps 751 mmHg 89%
    05:00 0°C° 0 mm 3 mps 751 mmHg 89%
    06:00 0°C° 0 mm 3 mps 751 mmHg 89%
    07:00 0°C° 0 mm 3 mps 751 mmHg 90%
    08:00 -1°C° 0.1 mm 4 mps 751 mmHg 86%
    09:00 0°C° 0.1 mm 5 mps 751 mmHg 83%
    10:00 0°C° 0.1 mm 5 mps 751 mmHg 79%
    11:00 0°C° 0 mm 5 mps 751 mmHg 75%
    12:00 +1°C° 0 mm 5 mps 751 mmHg 71%
    13:00 +1°C° 0 mm 5 mps 751 mmHg 67%
    14:00 +1°C° 0 mm 5 mps 751 mmHg 69%
    15:00 0°C° 0 mm 5 mps 751 mmHg 71%
    16:00 -1°C° 0 mm 4 mps 752 mmHg 73%
    17:00 -1°C° 0 mm 5 mps 752 mmHg 73%
    18:00 -1°C° 0 mm 5 mps 752 mmHg 73%
    19:00 -1°C° 0 mm 5 mps 752 mmHg 73%
    20:00 -2°C° 0 mm 5 mps 752 mmHg 74%
    21:00 -2°C° 0 mm 5 mps 752 mmHg 75%
    22:00 -2°C° 0 mm 5 mps 752 mmHg 76%
    23:00 -3°C° 0 mm 4 mps 752 mmHg 77%

    Tomorrow, 20 November, Tuesday

    Time Temperature Precipitation Wind Pressure Humidity
    00:00 -3°C° 0 mm 4 mps 752 mmHg 78%
    01:00 -3°C° 0 mm 4 mps 752 mmHg 79%
    02:00 -4°C° 0 mm 5 mps 751 mmHg 79%
    03:00 -2°C° 0 mm 5 mps 751 mmHg 79%
    04:00 -2°C° 0 mm 5 mps 751 mmHg 79%
    05:00 -2°C° 0 mm 5 mps 751 mmHg 79%
    06:00 -2°C° 0 mm 5 mps 751 mmHg 80%
    07:00 -2°C° 0 mm 5 mps 751 mmHg 80%
    08:00 -1°C° 0 mm 5 mps 750 mmHg 78%
    09:00 -1°C° 0 mm 5 mps 750 mmHg 76%
    10:00 -2°C° 0 mm 6 mps 750 mmHg 74%
    11:00 -1°C° 0 mm 6 mps 749 mmHg 72%
    12:00 +1°C° 0 mm 6 mps 749 mmHg 71%
    13:00 +1°C° 0 mm 6 mps 748 mmHg 69%
    14:00 +1°C° 0.2 mm 5 mps 748 mmHg 71%
    15:00 +1°C° 0.2 mm 5 mps 748 mmHg 73%
    16:00 0°C° 0.2 mm 5 mps 748 mmHg 74%
    17:00 0°C° 0.5 mm 4 mps 748 mmHg 77%
    18:00 0°C° 0.5 mm 4 mps 748 mmHg 80%
    19:00 0°C° 0.5 mm 4 mps 748 mmHg 82%
    20:00 0°C° 0.2 mm 4 mps 748 mmHg 84%
    21:00 0°C° 0.2 mm 4 mps 748 mmHg 86%
    22:00 0°C° 0.2 mm 3 mps 749 mmHg 88%
    23:00 0°C° 0.1 mm 3 mps 749 mmHg 89%

    Day after tomorrow, 21 November, Wednesday

    Time Temperature Precipitation Wind Pressure Humidity
    00:00 0°C° 0.1 mm 3 mps 749 mmHg 91%
    01:00 0°C° 0.1 mm 3 mps 749 mmHg 92%
    02:00 0°C° 0 mm 3 mps 749 mmHg 92%
    03:00 +1°C° 0 mm 3 mps 749 mmHg 92%
    04:00 +2°C° 0 mm 2 mps 750 mmHg 92%
    05:00 +1°C° 0 mm 3 mps 750 mmHg 92%
    06:00 +1°C° 0 mm 3 mps 750 mmHg 92%
    07:00 +1°C° 0 mm 3 mps 750 mmHg 92%
    08:00 +1°C° 0 mm 3 mps 751 mmHg 90%
    09:00 +1°C° 0 mm 3 mps 751 mmHg 89%
    10:00 +1°C° 0 mm 3 mps 752 mmHg 88%
    11:00 +2°C° 0 mm 3 mps 752 mmHg 87%
    12:00 +2°C° 0 mm 3 mps 752 mmHg 86%
    13:00 +2°C° 0 mm 3 mps 752 mmHg 85%
    14:00 +2°C° 0 mm 3 mps 752 mmHg 86%
    15:00 +1°C° 0 mm 3 mps 752 mmHg 86%
    16:00 +1°C° 0 mm 3 mps 752 mmHg 87%
    17:00 +1°C° 0 mm 3 mps 753 mmHg 87%
    18:00 +1°C° 0 mm 3 mps 753 mmHg 86%
    19:00 +1°C° 0 mm 3 mps 753 mmHg 86%
    20:00 0°C° 0 mm 3 mps 754 mmHg 86%
    21:00 -1°C° 0 mm 4 mps 754 mmHg 86%
    22:00 -1°C° 0 mm 4 mps 754 mmHg 85%
    23:00 -1°C° 0 mm 4 mps 754 mmHg 85%

    22 November, Thursday

    Time Temperature Precipitation Wind Pressure Humidity
    00:00 -1°C° 0 mm 4 mps 754 mmHg 85%
    01:00 -2°C° 0 mm 4 mps 754 mmHg 85%
    02:00 -2°C° 0 mm 4 mps 754 mmHg 86%
    03:00 -1°C° 0 mm 3 mps 754 mmHg 86%
    04:00 -1°C° 0 mm 3 mps 754 mmHg 87%
    05:00 -1°C° 0 mm 3 mps 754 mmHg 86%
    06:00 -1°C° 0 mm 3 mps 754 mmHg 86%
    07:00 -1°C° 0 mm 3 mps 754 mmHg 86%
    08:00 -1°C° 0 mm 3 mps 754 mmHg 84%
    09:00 0°C° 0 mm 3 mps 755 mmHg 83%
    10:00 0°C° 0 mm 3 mps 755 mmHg 82%
    11:00 +1°C° 0 mm 3 mps 755 mmHg 81%
    12:00 +1°C° 0 mm 3 mps 755 mmHg 80%
    13:00 +2°C° 0 mm 3 mps 755 mmHg 80%
    14:00 +3°C° 0 mm 2 mps 755 mmHg 82%
    15:00 +2°C° 0 mm 2 mps 755 mmHg 84%
    16:00 +2°C° 0 mm 2 mps 755 mmHg 86%
    17:00 +1°C° 0 mm 2 mps 755 mmHg 87%
    18:00 +1°C° 0 mm 2 mps 755 mmHg 87%
    19:00 +1°C° 0 mm 2 mps 755 mmHg 88%
    20:00 +1°C° 0 mm 2 mps 756 mmHg 88%
    21:00 -1°C° 0 mm 2 mps 756 mmHg 89%
    22:00 -1°C° 0 mm 2 mps 756 mmHg 89%
    23:00 -1°C° 0 mm 2 mps 756 mmHg 89%

    23 November, Friday

    Time Temperature Precipitation Wind Pressure Humidity
    00:00 -1°C° 0 mm 2 mps 756 mmHg 89%
    01:00 -1°C° 0 mm 2 mps 756 mmHg 89%
    02:00 -1°C° 0 mm 2 mps 756 mmHg 89%
    03:00 -1°C° 0 mm 2 mps 756 mmHg 89%
    04:00 -1°C° 0 mm 2 mps 756 mmHg 89%
    05:00 +1°C° 0 mm 2 mps 756 mmHg 89%
    06:00 +1°C° 0 mm 2 mps 756 mmHg 90%
    07:00 +1°C° 0 mm 2 mps 756 mmHg 90%
    08:00 +2°C° 0 mm 2 mps 757 mmHg 87%
    09:00 +3°C° 0 mm 2 mps 757 mmHg 85%
    10:00 +5°C° 0 mm 2 mps 757 mmHg 82%
    11:00 +5°C° 0 mm 2 mps 757 mmHg 81%
    12:00 +6°C° 0 mm 2 mps 757 mmHg 80%
    13:00 +7°C° 0 mm 2 mps 756 mmHg 78%
    14:00 +6°C° 0 mm 2 mps 756 mmHg 82%
    15:00 +5°C° 0 mm 2 mps 756 mmHg 86%
    16:00 +4°C° 0 mm 2 mps 756 mmHg 90%
    17:00 +4°C° 0 mm 2 mps 756 mmHg 90%
    18:00 +4°C° 0 mm 2 mps 756 mmHg 91%
    19:00 +4°C° 0 mm 2 mps 756 mmHg 91%
    20:00 +4°C° 0 mm 2 mps 755 mmHg 91%
    21:00 +3°C° 0 mm 3 mps 755 mmHg 91%
    22:00 +3°C° 0 mm 3 mps 755 mmHg 91%
    23:00 +3°C° 0 mm 3 mps 755 mmHg 91%

    24 November, Saturday

    Time Temperature Precipitation Wind Pressure Humidity
    00:00 +3°C° 0 mm 3 mps 755 mmHg 91%
    01:00 +2°C° 0 mm 3 mps 754 mmHg 91%
    02:00 +2°C° 0 mm 3 mps 754 mmHg 91%
    03:00 +3°C° 0 mm 2 mps 754 mmHg 91%
    04:00 +3°C° 0 mm 2 mps 753 mmHg 91%
    05:00 +3°C° 0 mm 2 mps 753 mmHg 91%
    06:00 +3°C° 0 mm 2 mps 753 mmHg 91%
    07:00 +3°C° 0 mm 2 mps 753 mmHg 91%
    08:00 +4°C° 0 mm 2 mps 752 mmHg 88%
    09:00 +4°C° 0 mm 2 mps 752 mmHg 85%
    10:00 +5°C° 0 mm 2 mps 752 mmHg 83%
    11:00 +6°C° 0 mm 2 mps 752 mmHg 80%
    12:00 +7°C° 0 mm 2 mps 752 mmHg 77%
    13:00 +8°C° 0 mm 2 mps 751 mmHg 74%
    14:00 +7°C° 0 mm 2 mps 751 mmHg 77%
    15:00 +6°C° 0 mm 2 mps 751 mmHg 81%
    16:00 +6°C° 0 mm 2 mps 751 mmHg 84%
    17:00 +5°C° 0 mm 2 mps 751 mmHg 85%
    18:00 +5°C° 0 mm 2 mps 751 mmHg 86%
    19:00 +5°C° 0 mm 2 mps 750 mmHg 87%
    20:00 +5°C° 0 mm 2 mps 751 mmHg 87%
    21:00 +4°C° 0 mm 2 mps 751 mmHg 88%
    22:00 +4°C° 0 mm 2 mps 751 mmHg 89%
    23:00 +4°C° 0 mm 2 mps 751 mmHg 90%
    Show more